Location: Four Corners
(38.2757°N, 122.4608°W)
Time: 22:36:04
(UTC+00:00)

Cosmos 1992 Rocket - Pass Details

Date: 08 December 2019
Orbit: 758 x 766 km, 74.0° (Epoch: 18 January)

Event Time Altitude Azimuth Distance (km) Brightness Sun altitude
Rises 02:26:16 0° 339° (NNW) 3,231 7.3 -18.5°
Reaches altitude 10° 02:28:39 10° 338° (NNW) 2,302 6.6 -18.9°
Maximum altitude 02:33:51 74° 254° (WSW) 796 4.2 -19.9°
Drops below altitude 10° 02:39:03 10° 170° (S) 2,292 6.5 -20.9°
Sets 02:41:24 0° 168° (SSE) 3,215 7.2 -21.4°
